Regional Weather Roundup
Issued by NWS

Home | Current Version | Previous Version | Text Only | Print | Product List | Glossary On
Versions: 1 2 3 4 5 6 7 8 9 10 11 12 13 14 15 16 17 18 19 20 21 22 23 24 25 26 27 28 29 30 31 32 33 34 35 36 37 38 39 40 41 42 43 44 45 46 47 48 49 50
000
ASUS43 KIND 061209
RWRIN

WEATHER ROUNDUP FOR INDIANA
NATIONAL WEATHER SERVICE INDIANAPOLIS IN
800 AM EDT MON JUL 06 2015

NOTE: "FAIR" INDICATES FEW OR NO CLOUDS BELOW 12,000 FEET WITH NO
SIGNIFICANT WEATHER AND/OR OBSTRUCTIONS TO VISIBILITY.

* - STATION DOES NOT REPORT WEATHER SUCH AS PRECIPITATION OR FOG.

+ - STATION NOT QUALITY CONTROLLED BY THE NATIONAL WEATHER SERVICE.
    USE DATA WITH CAUTION...ESPECIALLY DEWPOINT AND RELATIVE
    HUMIDITY OBSERVATIONS.

INZ001>003-010>013-019-020-061300-
NORTHWEST INDIANA

CITY           SKY/WX    TMP DP  RH WIND       PRES   REMARKS
GARY /AIRPORT/ SUNNY    N/A N/A N/A S5        30.03R FOG
KNOX *+        SUNNY     66  63  88 S5        30.04R
LA PORTE +     SUNNY     67  67 100 CALM      30.06R FOG
MICHIGAN CITY+ SUNNY     68  66  94 S5        30.05R FOG
MONTICELLO +   SUNNY     67  66  97 S7        30.04S FOG
6HR MIN TEMP:  63; 6HR MAX TEMP:  68;

RENSSELAER +   SUNNY     68  68 100 S3        30.05R FOG
VALPARAISO     SUNNY     66  64  93 S6        30.05R FOG
6HR MIN TEMP:  62; 6HR MAX TEMP:  69;


$$

LMZ046-743>745-061300-
SOUTHERN LAKE MICHIGAN

STATION/POSITION TIME  TEMP    WIND        PRES    WAVE
                       AIR SEA DIR/SP/G            HT
                 (UTC) (F)     (DEG/KT/KT) (MB)    (FT)
BURNS HARBOR     1200   69     190/  8/ 11 1017.3R
MICHIGAN CITY    1200   69     160/ 11/ 14   N/A
5NW MICH CITY    1200   67 66  190/  6/  8   N/A     1

$$

INZ004-005-014>016-021>024-061300-
NORTH CENTRAL INDIANA

CITY           SKY/WX    TMP DP  RH WIND       PRES   REMARKS
ELKHART        SUNNY     66  63  88 E3        30.05R
GOSHEN         SUNNY     66  62  87 SE6       30.06R FOG
6HR MIN TEMP:  59; 6HR MAX TEMP:  66;

LOGANSPORT +   SUNNY     64  61  88 S6        30.06F FOG
PERU/GRISSOM   SUNNY     67  64  91 S6        30.06S
6HR MIN TEMP:  63; 6HR MAX TEMP:  67;

ROCHESTER +    SUNNY     70  66  88 S5        30.07R FOG
SOUTH BEND     SUNNY     69  63  81 MISG      30.05R
6HR MIN TEMP:  63; 6HR MAX TEMP:  70;

WARSAW +         N/A     63  63 100 CALM      30.06S FOG

$$

INZ006>009-017-018-025>027-061300-
NORTHEAST INDIANA

CITY           SKY/WX    TMP DP  RH WIND       PRES   REMARKS
ANGOLA *+        N/A     63  61  94 CALM      30.08S
AUBURN +       SUNNY     61  59  94 CALM      30.09R FOG
FORT WAYNE     SUNNY     64  61  90 CALM      30.09R FOG
6HR MIN TEMP:  59; 6HR MAX TEMP:  65;

HUNTINGTON +   SUNNY     65  62  90 CALM      30.09R
6HR MIN TEMP:  59; 6HR MAX TEMP:  68;


$$

INZ028-029-035-036-043>045-051>053-061300-
WEST CENTRAL INDIANA

CITY           SKY/WX    TMP DP  RH WIND       PRES   REMARKS
CRAWFORDSVL +  SUNNY     65  64  94 S6        30.07F FOG
GREENCASTLE +  MOSUNNY   64  61  88 SE6       30.09F FOG
LAFAYETTE      SUNNY     67  65  93 S3        30.05S FOG
6HR MIN TEMP:  63; 6HR MAX TEMP:  69;

TERRE HAUTE    SUNNY     68  66  93 S9        30.07F FOG
6HR MIN TEMP:  66; 6HR MAX TEMP:  71;


$$

INZ030>032-037>040-046>048-054>057-064-065-061300-
CENTRAL INDIANA

CITY           SKY/WX    TMP DP  RH WIND       PRES   REMARKS
CP ATTERBURY + SUNNY     61  59  94 CALM      30.11S FOG
COLUMBUS       SUNNY     63  63 100 CALM      30.12R FOG
FRANKFORT +    SUNNY    N/A N/A N/A SE3       30.08F FOG
INDIANAPOLIS   SUNNY     67  63  87 SE6       30.08R FOG
6HR MIN TEMP:  63; 6HR MAX TEMP:  69;

-EAGLE CREEK   SUNNY     66  64  93 CALM      30.09R FOG
6HR MIN TEMP:  62; 6HR MAX TEMP:  68;

KOKOMO *+      MOSUNNY   64  61  88 S7        30.08S
6HR MIN TEMP:  61; 6HR MAX TEMP:  66;

MARION +       SUNNY     62  62  98 S5        30.09S FOG
MT COMFORT *+  SUNNY     64 N/A N/A S3        30.11R
SHELBYVILLE    SUNNY     66  62  87 CALM      30.10R FOG
6HR MIN TEMP:  61; 6HR MAX TEMP:  66;

ZIONSVILLE +   SUNNY     66  63  90 S3        30.10S FOG
6HR MIN TEMP:  61; 6HR MAX TEMP:  66;


$$

INZ033-034-041-042-049-050-058-059-061300-
EAST CENTRAL INDIANA

CITY           SKY/WX    TMP DP  RH WIND       PRES   REMARKS
MUNCIE         SUNNY     67  63  87 CALM      30.10R FOG
6HR MIN TEMP:  60; 6HR MAX TEMP:  67;


$$

INZ060-061-067>069-081>083-085>088-061300-
SOUTHWEST INDIANA

CITY           SKY/WX    TMP DP  RH WIND       PRES   REMARKS
EVANSVILLE     SUNNY     71  69  93 CALM      30.09R FOG
6HR MIN TEMP:  68; 6HR MAX TEMP:  73;

HUNTINGBURG *+ SUNNY     70  64  83 SE6       30.10S
6HR MIN TEMP:  66; 6HR MAX TEMP:  70;

WASHINGTON +   SUNNY     68  64  88 S5        30.08F FOG
6HR MIN TEMP:  65; 6HR MAX TEMP:  69;


$$

INZ062-063-066-070>080-084-089>092-061300-
SOUTH CENTRAL AND SOUTHEAST INDIANA

CITY           SKY/WX    TMP DP  RH WIND       PRES   REMARKS
BLOOMINGTON    SUNNY     68  63  84 S6        30.11R
6HR MIN TEMP:  62; 6HR MAX TEMP:  68;

MADISON *+     SUNNY     63  61  94 CALM      30.13S
NORTH VERNON + SUNNY     64  64 100 CALM      30.12R FOG
SEYMOUR +      SUNNY     64  64 100 CALM      30.11R FOG

$$



USA.gov is the U.S. government's official web portal to all federal, state and local government web resources and services.